MDT,Max TemperatureF,Mean TemperatureF,Min TemperatureF,Max Dew PointF,MeanDew PointF,Min DewpointF,Max Humidity, Mean Humidity, Min Humidity, Max Sea Level PressureIn, Mean Sea Level PressureIn, Min Sea Level PressureIn, Max VisibilityMiles, Mean VisibilityMiles, Min VisibilityMiles, Max Wind SpeedMPH, Mean Wind SpeedMPH, Max Gust SpeedMPH,PrecipitationIn, CloudCover, Events, WindDirDegrees
2013-6-1,70,53,36,40,32,25,89,55,20,30.25,30.14,29.98,10,10,10,13,4,17,0.00,0,,43
2013-6-2,81,62,42,44,37,29,83,49,15,29.97,29.77,29.58,10,10,10,26,9,37,0.00,2,,272
2013-6-3,68,53,37,39,32,27,76,50,24,29.96,29.90,29.78,10,10,10,20,6,28,0.00,2,,208
2013-6-4,70,58,45,40,34,28,76,49,22,30.10,30.03,29.95,10,10,10,13,7,20,0.00,3,,38
2013-6-5,76,58,39,39,35,32,79,51,22,30.14,30.06,29.96,10,10,10,12,5,15,0.00,0,,114
2013-6-6,79,62,45,47,42,36,83,53,22,30.12,30.00,29.95,10,10,10,16,4,20,0.00,0,,273
2013-6-7,84,65,46,48,44,39,86,56,26,29.96,29.85,29.67,10,10,10,22,7,29,0.00,0,,170
2013-6-8,79,68,57,44,37,31,55,38,21,29.92,29.86,29.76,10,10,10,20,9,26,0.00,0,,183
2013-6-9,86,66,46,45,40,31,77,49,20,29.96,29.83,29.70,10,10,10,26,10,40,0.00,0,,189
2013-6-10,89,72,54,51,42,27,72,44,16,29.75,29.66,29.56,10,10,10,20,8,25,0.00,0,,193
2013-6-11,81,70,59,45,40,27,48,34,20,29.89,29.74,29.57,10,10,10,29,13,36,T,1,Rain,200
2013-6-12,72,63,54,54,49,43,86,63,40,30.13,29.97,29.87,10,10,2,17,6,23,0.13,5,Rain-Thunderstorm,65
2013-6-13,75,63,51,55,43,32,77,50,23,29.99,29.88,29.79,10,10,10,30,11,43,0.06,3,Rain,207
2013-6-14,64,53,42,37,33,29,71,50,29,30.15,30.08,29.93,10,10,10,24,13,33,0.00,0,,197
2013-6-15,75,55,34,39,31,23,92,54,15,30.14,30.05,29.95,10,10,10,12,3,16,0.00,0,,50
2013-6-16,85,63,40,42,34,22,85,48,10,30.02,29.96,29.90,10,10,10,15,6,20,0.00,0,,40
2013-6-17,87,67,47,45,38,25,77,44,10,30.01,29.93,29.85,10,10,10,18,5,23,0.00,0,,165
2013-6-18,87,67,47,49,40,28,74,44,14,29.86,29.73,29.54,10,10,10,17,6,26,0.00,0,,20
2013-6-19,73,60,46,40,36,32,65,44,23,29.94,29.70,29.48,10,10,10,30,13,40,0.03,1,Rain,204
2013-6-20,65,53,40,37,31,19,73,46,18,30.08,30.00,29.92,10,10,10,21,11,28,0.00,1,,214
2013-6-21,68,54,40,38,33,27,79,50,21,30.02,29.97,29.94,10,10,10,18,7,24,0.00,3,,207
2013-6-22,69,58,47,38,35,32,66,47,27,30.02,29.97,29.94,10,10,10,21,11,29,T,3,,196
2013-6-23,78,59,39,39,34,26,85,51,16,29.96,29.83,29.65,10,10,10,14,5,20,0.00,0,,163
2013-6-24,77,62,47,49,43,38,68,50,31,29.81,29.67,29.61,10,10,10,23,9,30,T,2,Rain,219
2013-6-25,75,64,52,52,47,42,89,62,35,29.93,29.89,29.81,10,10,10,22,11,31,T,4,,201
2013-6-26,82,69,55,54,50,44,93,61,28,30.05,30.00,29.91,10,10,10,22,9,31,0.01,2,,197
2013-6-27,90,71,51,52,48,42,89,55,21,30.17,30.11,30.04,10,10,10,15,6,20,0.00,0,,177
2013-6-28,92,73,53,56,45,28,83,48,12,30.19,30.11,30.02,10,10,10,10,3,16,0.00,0,,65
2013-6-29,96,75,54,53,49,45,77,48,19,30.11,30.02,29.92,10,10,10,20,6,29,T,1,Thunderstorm,48
2013-6-30,93,76,59,60,52,45,75,48,20,30.08,30.01,29.93,10,10,10,13,3,17,0.00,0,,54